Simultaneous Nadir Overpasses (SNOs) Predictions

Prediction of SNOs between AQUA and NPP Satellite Orbit:

Table of predicted SNOs for the next 14.0 days since TLE Epoch: 5/27/2023
Index Date (AQUA) Time (AQUA) Lat,Lon (AQUA) SZA (AQUA ) Date (NPP) Time (NPP) Lat,Lon (NPP) SZA (NPP ) Distance(km) Time Diff (sec)
1 05/28/2023 20:44:20 80.41, 135.12 69.32 05/28/2023 20:44:06 80.41, 135.03 69.35 1.63 14
2 05/28/2023 21:33:39 -80.58, -55.33 111.02 05/28/2023 21:34:44 -80.58, -55.23 111.08 1.91 65
3 05/31/2023 11:19:24 80.50, -82.66 68.77 05/31/2023 11:19:24 80.51, -82.49 68.75 3.08 0
4 06/03/2023 01:05:12 -80.35,-110.57 111.29 06/03/2023 01:04:09 -80.35,-110.73 111.22 3.02 63
5 06/03/2023 01:54:32 80.48, 58.39 68.48 06/03/2023 01:54:48 80.48, 58.31 68.48 1.49 16
6 06/05/2023 15:40:16 -80.44, 31.54 111.73 06/05/2023 15:39:28 -80.45, 31.66 111.72 2.46 48
7 06/05/2023 16:29:37 80.53,-159.82 68.10 06/05/2023 16:30:09 80.53,-159.94 68.10 2.32 32
8 06/08/2023 06:15:22 -80.44, 172.80 111.97 06/08/2023 06:14:51 -80.44, 172.73 111.94 1.31 31



Historial Predications of SNOs between AQUA and NPP
